Weather History for West Palm Beach, FL

Change the Weather History Date:

Saturday, July 27, 2013

  Actual Average Record
Temperature  
Mean Temperature 84 °F 83 °F  
Max Temperature 90 °F 90 °F 96 °F (1950)
Min Temperature 77 °F 76 °F 69 °F (1911)
Degree Days  
Heating Degree Days 0 0  
Month to date heating degree days 0 0  
Since 1 June heating degree days 0 0  
Since 1 July heating degree days 0 0  
Cooling Degree Days 19 18  
Month to date cooling degree days 498 475  
Year to date cooling degree days 2172 2074  
Since 1 June cooling degree days 987 965  
Growing Degree Days 34 (Base 50)    
Moisture  
Dew Point 73 °F    
Average Humidity 72    
Maximum Humidity 85    
Minimum Humidity 59    
Precipitation  
Precipitation 0.14 in 0.18 in 2.56 in (1974)
Month to date precipitation 5.73 5.05  
Year to date precipitation 43.41 32.06  
Snow  
Snow 0.00 in - - ()
Month to date snowfall 0.0  
Since 1 June snowfall 0.0  
Since 1 July snowfall 0.0  
Snow Depth 0.00 in    
Sea Level Pressure  
Sea Level Pressure 29.97 in    
Wind  
Wind Speed 4 mph (SSW)    
Max Wind Speed 18 mph    
Max Gust Speed 22 mph    
Visibility 10 miles    
Events Rain , Thunderstorm    
T = Trace of Precipitation, MM = Missing Value Source: NWS Daily Summary

Daily Weather History Graph

Daily Weather History Graph

Search for Another Location

Airport:

Trip Planner

Search our weather history database for the weather conditions in past years. The results will help you decide how hot, cold, wet, or windy it might be!

Date:

Astronomy

Jul. 27, 2013 Rise Set
Actual Time 6:42 AM EDT 8:10 PM EDT
Civil Twilight 6:17 AM EDT 8:35 PM EDT
Nautical Twilight 5:47 AM EDT 9:05 PM EDT
Astronomical Twilight 5:16 AM EDT 9:37 PM EDT
Moon 11:37 PM EDT (7/27) 11:43 AM EDT (7/27)
Length of Visible Light 14h 18m
Length of Day
13h 27m
Waning Gibbous, 71% of the Moon is Illuminated
Jul 27
Waning Gibbous
Jul 29
Last Quarter
Aug 6
New
Aug 14
First Quarter
Aug 20
Full

Hourly Weather History & Observations

Time (EDT) Temp. Heat Index Dew Point Humidity Pressure Visibility Wind Dir Wind Speed Gust Speed Precip Events Conditions
12:53 AM 80.1 °F 84.2 °F 73.0 °F 79% 29.98 in 10.0 mi SW 5.8 mph - N/A   Scattered Clouds
1:53 AM 81.0 °F 86.2 °F 73.9 °F 79% 29.97 in 10.0 mi SW 5.8 mph - N/A   Scattered Clouds
2:53 AM 80.1 °F 84.2 °F 73.0 °F 79% 29.96 in 10.0 mi WSW 4.6 mph - N/A   Scattered Clouds
3:53 AM 80.1 °F 83.8 °F 72.0 °F 76% 29.94 in 10.0 mi West 4.6 mph - N/A   Scattered Clouds
4:53 AM 78.1 °F - 72.0 °F 81% 29.94 in 10.0 mi NW 4.6 mph - N/A   Scattered Clouds
5:53 AM 79.0 °F - 73.0 °F 82% 29.96 in 10.0 mi WSW 5.8 mph - N/A   Scattered Clouds
6:53 AM 79.0 °F - 73.0 °F 82% 29.97 in 10.0 mi Calm Calm - N/A   Scattered Clouds
7:53 AM 80.1 °F 84.5 °F 73.9 °F 81% 29.98 in 10.0 mi Calm Calm - N/A   Mostly Cloudy
8:53 AM 82.9 °F 89.4 °F 73.9 °F 74% 29.98 in 10.0 mi SSW 3.5 mph - N/A   Mostly Cloudy
9:53 AM 84.9 °F 92.1 °F 73.9 °F 69% 29.99 in 10.0 mi SSW 3.5 mph - N/A   Mostly Cloudy
10:53 AM 88.0 °F 95.6 °F 73.0 °F 61% 29.99 in 10.0 mi Calm Calm - N/A   Mostly Cloudy
11:53 AM 88.0 °F 94.7 °F 72.0 °F 59% 29.98 in 10.0 mi SSW 3.5 mph - N/A   Mostly Cloudy
12:53 PM 87.1 °F 95.4 °F 73.9 °F 65% 29.98 in 10.0 mi ESE 11.5 mph - N/A   Mostly Cloudy
1:22 PM 87.8 °F 95.6 °F 73.4 °F 62% 29.97 in 7.0 mi ESE 17.3 mph - 0.00 in Thunderstorm Thunderstorm
1:34 PM 86.0 °F 93.4 °F 73.4 °F 66% 29.97 in 7.0 mi SE 17.3 mph - 0.00 in Thunderstorm Thunderstorm
1:53 PM 84.0 °F 90.2 °F 73.0 °F 69% 29.99 in 7.0 mi WSW 12.7 mph - 0.00 in Thunderstorm Thunderstorm
2:53 PM 77.0 °F - 71.1 °F 82% 29.99 in 5.0 mi NW 3.5 mph - 0.13 in Rain , Thunderstorm Thunderstorms and Rain
3:36 PM 78.8 °F - 71.6 °F 78% 29.97 in 10.0 mi Calm Calm - 0.01 in   Mostly Cloudy
3:53 PM 78.1 °F - 72.0 °F 81% 29.96 in 10.0 mi Calm Calm - 0.01 in Rain Light Rain
4:53 PM 79.0 °F - 72.0 °F 79% 29.95 in 10.0 mi South 6.9 mph - 0.00 in   Mostly Cloudy
5:53 PM 80.1 °F 83.8 °F 72.0 °F 76% 29.95 in 10.0 mi South 5.8 mph - N/A   Mostly Cloudy
6:53 PM 80.1 °F 83.6 °F 71.1 °F 74% 29.95 in 10.0 mi WSW 6.9 mph - N/A   Mostly Cloudy
7:53 PM 80.1 °F 83.8 °F 72.0 °F 76% 29.96 in 10.0 mi South 3.5 mph - N/A   Mostly Cloudy
8:53 PM 80.1 °F 83.8 °F 72.0 °F 76% 29.97 in 10.0 mi South 3.5 mph - N/A   Mostly Cloudy
9:53 PM 80.1 °F 83.8 °F 72.0 °F 76% 29.98 in 10.0 mi SE 4.6 mph - N/A   Mostly Cloudy
10:53 PM 80.1 °F 83.6 °F 71.1 °F 74% 30.00 in 10.0 mi SSE 4.6 mph - N/A   Mostly Cloudy
11:53 PM 81.0 °F 84.9 °F 71.1 °F 72% 30.00 in 10.0 mi Calm Calm - N/A   Mostly Cloudy